Date,TemperatureHighF,TemperatureAvgF,TemperatureLowF,DewpointHighF,DewpointAvgF,DewpointLowF,HumidityHigh,HumidityAvg,HumidityLow,PressureMaxIn,PressureMinIn,WindSpeedMaxMPH,WindSpeedAvgMPH,GustSpeedMaxMPH,PrecipitationSumIn
2013-1-1,47,38,33,42,37,31,99,94,75,30.29,30.18,2,0,4,0.01
2013-1-2,48,36,29,43,34,28,98,93,74,30.26,30.14,1,0,2,0.01
2013-1-3,50,37,30,44,36,29,97,94,78,30.28,30.18,0,0,0,0.00
2013-1-4,51,39,31,43,37,30,98,92,72,30.29,30.18,1,0,2,0.00
2013-1-5,50,43,35,48,42,34,98,97,91,30.29,30.09,1,0,3,0.52
2013-1-6,47,44,39,46,44,37,99,97,91,30.20,30.06,1,0,3,0.41
2013-1-7,51,43,36,50,42,35,99,97,93,30.28,30.16,0,0,1,0.00
2013-1-8,55,45,38,52,44,38,100,97,89,30.23,30.12,0,0,0,0.00
2013-1-9,52,44,37,49,42,36,99,95,85,30.16,30.02,1,0,4,0.03
2013-1-10,43,38,36,41,37,35,99,97,87,30.14,30.10,1,0,4,0.04
2013-1-13,-200,0,200,-100,-100,-100,0,0,100,30.20,30.20,0,0,0,0.00
2013-1-14,29,7,29,-100,-100,-100,0,0,100,30.37,30.29,2,0,2,0.00
2013-1-17,57,47,37,45,40,35,97,81,57,30.22,30.11,1,0,2,0.00
2013-1-18,58,41,31,45,36,30,97,85,47,30.22,30.13,1,0,4,0.00
2013-1-19,59,42,31,46,37,30,96,84,45,30.24,30.15,1,0,2,0.00
2013-1-20,59,42,31,46,37,29,95,85,52,30.24,30.10,1,0,2,0.00
2013-1-21,59,41,30,45,36,28,95,84,45,30.19,30.08,0,0,0,0.00
2013-1-22,59,43,31,46,38,29,95,84,47,30.14,30.03,0,0,3,0.00
2013-1-23,51,46,42,50,45,40,98,94,89,30.09,29.99,0,0,0,0.09
2013-1-24,52,50,47,52,49,46,99,98,98,30.19,30.06,0,0,0,0.25
2013-1-25,59,54,50,58,53,48,99,98,95,30.19,30.04,2,0,2,0.03
2013-1-26,52,48,44,51,44,42,99,90,69,30.10,30.02,2,0,5,0.01
2013-1-27,51,44,40,42,40,38,97,86,64,30.18,30.09,2,0,4,0.01
2013-1-28,52,44,37,45,41,35,96,87,71,30.31,30.16,2,0,4,0.01
2013-1-29,55,46,41,48,43,40,95,88,73,30.36,30.25,2,0,4,0.00
2013-1-30,58,46,37,50,43,36,98,90,69,30.36,30.27,0,0,3,0.00
2013-1-31,60,47,34,50,44,33,97,87,66,30.28,30.18,1,0,2,0.00
2013-2-1,61,46,35,52,43,34,97,88,59,30.25,30.12,1,0,3,0.00
2013-2-2,60,47,39,52,45,38,96,92,73,30.29,30.21,1,0,4,0.00
2013-2-3,54,46,40,49,44,39,96,91,79,30.26,30.13,1,0,2,0.00
2013-2-4,59,45,34,51,43,33,96,90,71,30.19,30.06,0,0,2,0.00
2013-2-5,54,48,43,47,44,41,95,87,72,30.16,30.09,2,0,5,0.00
2013-2-6,56,43,34,49,40,33,96,89,72,30.21,30.12,1,0,3,0.00
2013-2-7,48,40,33,46,38,32,96,94,88,30.21,30.03,1,0,3,0.11
2013-2-8,47,40,35,42,38,33,97,93,78,30.03,29.96,2,0,4,0.12
2013-2-9,50,38,29,43,34,28,97,87,59,30.14,30.00,1,0,3,0.01
2013-2-10,53,40,29,41,35,27,95,84,58,30.14,30.02,2,0,4,0.00
2013-2-11,55,41,31,40,34,26,95,79,33,30.28,30.09,2,0,7,0.00
2013-2-12,55,42,31,45,37,29,95,85,59,30.38,30.27,0,0,3,0.00
2013-2-13,58,44,32,46,38,31,96,84,53,30.36,30.23,2,0,4,0.00
2013-2-14,62,46,35,47,40,33,95,81,51,30.25,30.15,2,0,4,0.00
2013-2-15,66,48,36,50,42,34,95,81,47,30.27,30.19,1,0,3,0.00
2013-2-16,65,49,38,50,42,36,94,79,44,30.26,30.06,2,0,3,0.00
2013-2-17,60,46,36,49,42,34,95,86,62,30.08,29.97,1,0,5,0.00
2013-2-18,50,43,37,43,39,35,94,87,70,30.07,30.00,1,0,3,0.00
2013-2-19,45,40,34,44,39,33,96,95,93,30.01,29.78,2,0,5,0.39
2013-2-20,52,41,32,43,38,31,97,88,61,30.09,29.85,2,1,5,0.01
2013-2-21,53,44,37,42,38,34,95,80,48,30.21,30.07,2,0,5,0.01
2013-2-22,57,43,31,44,37,29,94,81,50,30.27,30.19,2,0,4,0.01
2013-2-23,54,46,39,44,40,36,95,81,58,30.27,30.16,2,0,5,0.01
2013-2-24,58,45,36,38,33,25,91,66,30,30.28,30.17,2,0,6,0.01
2013-2-25,62,44,31,47,39,29,93,82,54,30.30,30.17,1,0,3,0.00
2013-2-26,62,45,32,41,34,23,94,70,22,30.24,30.12,2,0,5,0.00
2013-2-27,64,47,32,45,38,30,92,73,38,30.38,30.23,1,0,3,0.00
2013-2-28,65,50,38,53,45,36,93,83,64,30.45,30.37,1,0,3,0.00
2013-3-1,68,53,40,55,47,38,94,83,56,30.45,30.22,1,0,3,0.00
2013-3-2,69,54,45,54,48,43,93,79,49,30.26,30.08,0,0,3,0.00
2013-3-3,61,52,47,51,47,44,92,82,58,30.14,30.04,2,0,5,0.00
2013-3-4,61,50,44,50,44,41,91,82,62,30.16,30.05,1,0,4,0.00
2013-3-5,53,46,41,44,42,39,94,85,70,30.10,29.93,3,0,8,0.75
2013-3-6,52,46,39,47,44,37,96,91,68,30.10,29.93,3,0,7,1.92
2013-3-7,54,44,37,44,40,35,95,87,60,30.03,29.87,1,0,3,0.35
2013-3-8,53,46,41,47,43,40,96,87,72,30.10,29.84,3,1,6,0.42
2013-3-9,60,50,42,47,43,39,91,77,46,30.32,30.09,3,0,7,0.01
2013-3-10,66,48,35,49,41,33,95,79,38,30.35,30.25,0,0,3,0.00
2013-3-11,69,50,36,49,42,34,93,77,41,30.29,30.11,2,0,3,0.00
2013-3-12,76,54,39,54,46,37,93,78,41,30.16,30.05,1,0,3,0.00
2013-3-13,76,57,43,57,49,41,93,78,38,30.16,30.06,1,0,3,0.00
2013-3-14,72,56,44,58,48,42,94,76,44,30.15,30.10,1,0,3,0.00
2013-3-15,70,54,41,55,46,38,91,75,46,30.15,30.04,1,0,3,0.00
2013-3-16,72,55,43,56,44,39,93,72,35,30.11,30.03,2,0,4,0.00
2013-3-17,68,52,41,47,42,34,92,71,29,30.14,30.04,2,0,4,0.00
2013-3-18,64,50,37,54,44,35,93,79,56,30.13,30.03,1,0,4,0.00
2013-3-19,75,53,42,52,44,39,93,75,38,30.16,30.07,3,0,7,0.01
2013-3-20,62,54,49,55,51,47,95,89,72,30.14,30.09,1,0,3,0.01
2013-3-21,65,52,42,50,44,39,91,75,52,30.14,30.01,2,0,5,0.00
2013-3-22,67,51,39,40,34,19,92,60,18,30.10,30.02,2,0,5,0.00
2013-3-23,67,50,35,43,37,27,90,65,22,30.13,30.03,2,0,3,0.00
2013-3-24,74,52,37,51,43,34,91,74,38,30.10,29.97,1,0,5,0.00
2013-3-25,71,51,39,48,43,37,92,75,41,30.03,29.93,1,0,3,0.00
2013-3-26,72,54,43,54,46,40,91,76,46,30.02,29.91,1,0,3,0.00
2013-3-27,65,54,45,54,49,42,93,84,62,30.03,29.97,2,0,7,0.00
2013-3-28,65,56,51,58,53,49,95,90,75,30.10,30.02,0,0,3,0.00
2013-3-29,76,58,46,59,51,44,95,79,48,30.09,30.02,1,0,5,0.00
2013-3-30,71,56,50,54,50,-100,94,84,47,30.09,30.01,2,0,6,0.00
2013-3-31,62,56,52,57,52,51,95,89,69,30.08,30.01,2,0,6,0.00
2013-4-1,61,54,48,56,52,46,95,91,79,30.16,30.06,1,0,3,0.00
2013-4-2,69,54,44,57,50,43,95,86,58,30.20,30.08,0,0,0,0.00
2013-4-3,77,56,44,58,49,42,94,79,42,30.14,29.98,0,0,0,0.00
2013-4-4,58,53,49,56,51,46,95,93,90,30.14,30.03,1,0,3,0.00
2013-4-5,62,55,50,56,51,47,95,87,67,30.20,30.12,1,0,3,0.00
2013-4-6,62,54,48,56,50,46,94,86,72,30.22,30.14,2,0,3,0.00
2013-4-7,69,54,45,57,48,43,94,83,61,30.19,29.90,2,0,5,0.00
2013-4-8,62,53,45,48,41,34,93,67,36,30.03,29.86,3,1,9,0.00
2013-4-9,70,54,39,47,40,34,94,65,26,30.10,30.02,3,1,7,0.00
2013-4-10,83,62,47,52,47,42,87,61,29,30.16,30.05,3,1,6,0.00
2013-4-11,58,52,47,50,43,-100,86,78,74,30.09,29.89,2,1,4,0.00
2013-4-12,78,54,40,54,46,38,93,76,40,29.94,29.83,1,0,5,0.00
2013-4-13,73,53,43,53,44,39,92,74,45,29.94,29.86,3,0,5,0.00
2013-4-14,68,51,40,45,40,36,92,70,34,29.94,29.89,3,1,6,0.00
2013-4-15,55,48,44,47,40,35,93,75,54,29.98,29.89,3,1,8,0.01
2013-4-16,65,48,35,40,35,31,92,65,32,30.15,29.98,2,0,5,0.01
2013-4-17,66,51,38,41,34,26,90,58,24,30.26,30.15,3,0,6,0.00
2013-4-18,76,54,37,46,38,31,90,61,21,30.28,30.19,2,0,5,0.00
2013-4-19,84,58,41,53,44,37,88,64,31,30.26,30.08,2,0,5,0.00
2013-4-20,83,60,45,51,45,40,91,63,22,30.11,29.98,2,0,5,0.00
2013-4-21,88,62,44,53,44,38,89,60,19,30.04,29.93,2,0,4,0.00
2013-4-22,85,60,48,56,49,43,89,70,32,29.98,29.86,2,0,5,0.00
2013-4-23,79,56,45,54,49,43,94,79,42,29.96,29.88,2,0,6,0.00
2013-4-24,55,50,46,49,44,-100,92,88,83,29.99,29.85,1,0,2,0.00
2013-4-25,74,55,44,54,48,42,94,79,45,30.14,29.98,1,0,6,0.00
2013-4-26,78,58,47,58,50,44,92,77,46,30.22,30.14,2,0,5,0.00
2013-4-27,85,59,43,57,49,41,93,73,38,30.22,30.08,2,0,5,0.00
2013-4-28,83,61,43,59,51,41,92,73,41,30.09,29.89,1,0,3,0.00
2013-4-29,92,66,50,59,50,47,91,63,23,29.91,29.77,2,0,4,0.00
2013-4-30,81,62,47,56,46,37,89,62,22,29.85,29.78,2,0,4,0.00
2013-5-1,83,59,44,55,48,41,94,71,26,30.10,29.85,2,0,5,0.00
2013-5-2,97,65,47,58,46,35,89,59,14,30.14,30.08,2,0,7,0.00
2013-5-3,93,66,47,55,43,33,79,51,14,30.11,29.82,2,0,7,0.00
2013-5-4,81,58,48,53,46,40,84,66,32,29.83,29.65,2,0,8,0.00
2013-5-5,64,57,53,52,49,47,87,76,62,29.82,29.64,3,1,8,0.00
2013-5-6,65,58,54,53,51,50,89,79,61,29.98,29.82,2,0,6,0.00
2013-5-7,74,60,52,53,50,46,90,72,44,30.06,29.97,2,0,7,0.02
2013-5-8,70,56,45,55,48,42,92,76,55,30.16,30.06,1,0,6,0.02
2013-5-9,79,58,50,56,50,46,89,76,44,30.19,30.08,1,0,3,0.00
2013-5-10,84,60,49,59,49,-100,91,75,43,30.20,30.08,2,0,4,0.00
2013-5-11,94,64,48,61,51,-100,92,70,28,30.16,30.03,1,0,5,0.00
2013-5-12,90,66,50,60,52,45,90,65,27,30.13,30.01,2,0,4,0.00
2013-5-13,86,63,48,59,49,41,85,63,36,30.09,29.97,2,0,4,0.00
2013-5-14,75,59,48,56,48,42,90,69,40,30.06,29.96,2,0,6,0.00
2013-5-15,71,56,45,48,45,42,91,71,39,30.09,30.05,2,0,4,0.00
2013-5-16,72,55,52,56,34,-100,91,76,51,30.06,29.99,1,0,5,0.01
2013-5-17,73,56,46,48,41,-100,92,68,31,30.11,30.01,2,0,6,0.01
2013-5-18,76,58,44,51,46,38,91,67,25,30.15,30.09,2,0,5,0.00
2013-5-19,85,62,45,54,46,40,91,60,22,30.14,29.98,2,0,4,0.00
2013-5-20,91,65,45,53,41,28,85,50,12,30.01,29.93,2,0,7,0.00
2013-5-21,68,56,49,51,44,40,79,65,38,30.02,29.93,4,1,8,0.00
2013-5-22,67,52,42,42,37,30,81,59,28,30.01,29.96,3,1,6,0.00
2013-5-23,65,54,47,46,42,39,80,65,43,30.04,29.96,2,1,5,0.00
2013-5-24,78,53,39,48,42,36,90,68,32,30.04,29.98,2,0,4,0.00
2013-5-25,69,53,44,48,44,40,91,74,46,30.09,30.01,2,0,5,0.00
2013-5-26,70,59,52,54,51,48,94,76,51,30.15,30.08,2,1,5,0.01
2013-5-27,65,58,51,54,52,47,90,79,66,30.15,30.03,2,0,4,0.01
2013-5-28,73,61,53,58,53,46,93,76,46,30.03,29.92,2,0,4,0.01
2013-5-29,75,59,50,57,50,45,88,73,43,29.99,29.92,3,1,5,0.01
2013-5-30,80,59,46,48,41,15,91,60,10,30.02,29.95,2,0,5,0.00
2013-5-31,89,64,44,55,44,38,88,56,17,30.01,29.91,3,0,5,0.00
2013-6-1,98,68,50,59,49,43,84,56,17,29.95,29.77,1,0,4,0.00
2013-6-2,59,58,57,48,48,47,71,69,66,29.80,29.79,1,0,2,0.00
2013-6-14,61,60,58,45,45,44,61,58,55,29.87,29.86,0,0,0,0.00
2013-6-15,76,58,45,56,49,40,91,73,49,30.03,29.86,2,0,6,0.00
2013-6-16,84,62,48,51,45,-100,91,65,26,30.09,30.02,3,1,5,0.00
2013-6-17,79,62,51,56,51,47,87,69,39,30.10,30.05,2,0,5,0.00
2013-6-18,70,59,53,52,49,46,88,71,43,30.06,30.02,3,1,6,0.00
2013-6-19,73,60,50,50,47,45,85,64,41,30.06,30.02,3,1,6,0.00
2013-6-20,83,53,45,52,46,40,90,79,25,30.04,29.95,1,0,4,0.00
2013-6-21,81,75,69,50,48,46,43,38,34,29.93,29.93,1,1,2,0.00
2013-6-22,90,69,47,58,50,43,89,54,26,29.94,29.86,2,1,4,0.00
2013-6-23,70,63,56,61,57,52,89,81,70,29.91,29.83,1,0,3,0.00
2013-6-24,64,60,59,59,58,57,94,90,83,29.94,29.81,1,0,4,0.02
2013-6-25,66,61,57,64,60,55,95,93,91,30.02,29.93,0,0,2,0.10
2013-6-26,86,70,60,70,63,58,95,81,55,30.04,29.96,2,0,4,0.02
2013-6-27,95,71,57,65,60,55,92,72,33,30.06,29.99,1,0,3,0.00
2013-6-28,100,72,57,67,57,51,86,64,30,30.03,29.89,2,0,4,0.00
2013-6-29,100,76,59,63,53,46,80,52,18,29.92,29.80,2,0,4,0.00
2013-6-30,97,73,58,62,54,48,85,58,21,29.85,29.75,2,0,4,0.00
2013-7-1,91,73,58,62,57,53,83,61,33,29.89,29.80,2,0,5,0.00
2013-7-2,93,71,61,62,58,56,86,67,33,29.93,29.85,2,0,5,0.00
2013-7-3,91,71,58,64,59,54,88,68,40,29.93,29.78,1,0,4,0.00
2013-7-4,89,70,60,64,59,55,86,70,43,29.79,29.72,2,0,6,0.00
2013-7-5,81,64,53,59,54,50,92,73,46,29.83,29.74,1,0,7,0.00
2013-7-6,78,60,54,58,53,50,89,79,48,29.84,29.77,2,0,5,0.00
2013-7-7,81,60,54,56,52,50,87,77,41,29.89,29.80,2,0,5,0.00
2013-7-8,82,60,53,57,51,-100,90,76,30,29.98,29.89,1,0,7,0.00
2013-7-9,95,66,50,60,53,47,91,69,28,30.01,29.91,1,0,4,0.00
2013-7-10,86,63,54,61,53,-100,91,73,42,30.00,29.90,2,0,5,0.00
2013-7-11,81,62,54,58,53,50,90,76,46,29.96,29.89,2,0,7,0.00
2013-7-12,82,61,52,59,52,49,91,76,44,29.96,29.88,1,0,6,0.00
2013-7-13,88,62,47,59,52,45,93,74,36,29.98,29.90,2,0,5,0.00
2013-7-14,85,62,50,59,53,48,92,74,41,30.00,29.90,2,0,5,0.00
2013-7-15,78,61,52,57,53,49,90,77,48,29.94,29.84,2,0,6,0.00
2013-7-16,75,61,55,58,54,51,89,79,53,30.04,29.89,2,0,4,0.00
2013-7-17,86,64,56,59,55,52,87,73,37,30.09,30.01,1,0,3,0.00
2013-7-18,88,62,48,59,53,45,92,75,37,30.07,29.93,1,0,5,0.00
2013-7-19,85,62,50,60,54,47,93,75,42,29.98,29.83,2,0,5,0.00
2013-7-20,79,61,53,60,52,-100,90,77,50,29.88,29.78,2,0,5,0.00
2013-7-21,83,64,52,60,54,49,91,74,42,29.91,29.80,2,0,5,0.00
2013-7-22,78,65,59,62,57,54,88,75,52,29.97,29.90,1,0,6,0.00
2013-7-23,86,68,59,61,58,55,90,72,39,30.00,29.94,1,0,4,0.00
2013-7-24,89,67,55,61,56,52,90,72,38,29.98,29.89,1,0,5,0.00
2013-7-25,84,63,52,61,55,50,93,77,45,30.04,29.95,2,0,5,0.00
2013-7-26,80,62,54,61,55,51,92,78,52,30.10,30.01,2,0,7,0.00
2013-7-27,82,63,55,61,55,52,92,77,47,30.05,29.88,2,0,6,0.00
2013-7-28,76,61,54,59,54,51,92,80,55,29.91,29.84,2,0,6,0.00
2013-7-29,76,60,55,58,53,50,87,78,53,30.04,29.89,2,0,5,0.00
2013-7-30,81,62,53,58,53,49,88,74,39,30.11,30.04,2,0,7,0.00
2013-7-31,82,62,54,59,52,48,89,72,44,30.11,30.01,2,0,5,0.00
2013-8-1,79,61,50,55,50,46,90,70,37,30.09,29.98,2,1,4,0.00
2013-8-2,83,60,48,59,51,45,92,76,44,29.99,29.91,2,0,5,0.00
2013-8-3,75,60,53,58,53,50,90,79,55,30.00,29.92,2,0,6,0.00
2013-8-4,78,61,54,59,54,51,91,79,51,30.02,29.95,2,0,5,0.00
2013-8-5,82,60,50,59,52,48,92,77,44,30.04,29.93,1,0,5,0.00
2013-8-6,78,61,52,59,53,49,91,77,51,30.07,29.99,2,0,6,0.00
2013-8-7,79,63,57,57,54,52,88,75,47,30.11,30.02,2,0,4,0.00
2013-8-8,80,61,54,59,54,51,91,79,48,30.05,29.94,2,0,5,0.00
2013-8-9,82,63,54,59,54,50,88,75,46,30.00,29.92,2,0,5,0.00
2013-8-10,83,64,55,60,55,52,90,76,45,30.04,29.97,1,0,4,0.00
2013-8-11,84,64,54,61,55,51,91,76,45,30.03,29.92,1,0,5,0.00
2013-8-12,86,62,51,61,54,48,92,78,43,30.00,29.93,2,0,5,0.00
2013-8-13,89,64,49,57,50,-100,91,68,34,29.99,29.90,2,0,5,0.00
2013-8-14,89,66,50,60,49,-100,86,65,23,29.98,29.91,2,0,4,0.00
2013-8-15,92,62,57,66,40,-100,91,68,36,29.96,29.89,2,0,3,0.00
2013-8-16,93,68,58,67,53,-100,92,68,36,29.98,29.91,2,0,4,0.00
2013-8-17,81,64,54,60,51,-100,84,65,46,29.99,29.89,2,0,4,0.00
2013-8-18,93,66,52,63,56,49,94,75,30,29.92,29.78,1,0,7,0.00
2013-8-19,87,62,56,62,46,-100,91,73,38,29.93,29.83,2,0,6,0.00
2013-8-20,81,63,57,59,54,-100,91,77,45,29.93,29.84,2,0,5,0.00
2013-8-21,82,62,55,57,54,52,90,76,35,29.96,29.85,1,0,4,0.00
2013-8-22,82,63,52,58,54,49,91,74,36,29.98,29.87,1,0,3,0.00
2013-8-23,84,62,53,60,53,50,91,74,43,29.94,29.81,2,0,3,0.00
2013-8-24,85,64,51,60,53,-100,91,71,38,29.91,29.83,2,0,5,0.00
2013-8-25,86,67,58,64,57,52,91,74,41,29.95,29.89,1,0,6,0.00
2013-8-26,84,66,59,61,56,50,88,72,43,30.01,29.88,2,0,3,0.00
2013-8-27,76,55,49,58,49,45,88,81,50,29.92,29.87,0,0,3,0.00
2013-8-28,89,74,61,63,60,57,86,64,34,29.95,29.84,1,0,4,0.00
2013-8-29,86,66,55,65,58,53,93,78,45,30.03,29.95,2,0,3,0.00
2013-8-30,96,69,55,65,56,50,92,68,25,30.03,29.90,2,0,4,0.00
2013-8-31,90,67,55,57,51,-100,80,61,26,29.97,29.87,1,0,4,0.00
2013-9-1,88,70,61,62,56,53,81,64,37,29.93,29.84,1,0,4,0.00
2013-9-2,85,70,64,63,60,57,87,73,45,29.95,29.86,1,0,4,0.01
2013-9-3,84,68,56,60,54,49,89,65,33,29.98,29.92,1,0,5,0.01
2013-9-4,83,66,55,58,54,52,89,68,39,30.03,29.95,2,1,5,0.00
2013-9-5,80,67,60,56,55,52,83,67,40,30.01,29.96,2,1,5,0.00
2013-9-6,93,67,49,57,52,46,91,65,25,30.01,29.80,1,0,3,0.00
2013-9-7,96,67,54,60,52,-100,84,64,25,29.88,29.81,2,0,6,0.00
2013-9-8,87,64,53,62,56,50,92,77,43,29.88,29.76,2,0,4,0.00
2013-9-9,90,65,54,62,56,51,92,75,38,29.82,29.72,1,0,4,0.00
2013-9-10,67,60,55,59,56,53,93,87,73,29.93,29.77,2,0,7,0.00
2013-9-11,76,64,57,60,57,54,89,79,58,30.01,29.93,1,0,5,0.00
2013-9-12,84,66,57,63,58,54,90,78,47,29.98,29.86,1,0,4,0.00
2013-9-13,84,64,55,61,54,45,92,73,31,29.92,29.75,3,0,4,0.00
2013-9-14,75,61,53,59,52,-100,89,76,58,29.83,29.73,2,1,5,0.00
2013-9-15,80,65,50,59,54,48,92,72,47,29.86,29.79,2,0,4,0.00
2013-9-16,84,65,52,61,55,49,93,73,43,29.89,29.80,2,0,4,0.00
2013-9-17,73,62,55,56,53,50,85,74,48,29.90,29.86,3,1,7,0.00
2013-9-18,62,53,48,50,47,44,91,81,58,29.90,29.87,1,0,2,0.00
2013-9-19,90,64,45,53,46,40,85,56,22,29.88,29.73,2,0,4,0.00
2013-9-20,74,61,49,59,51,40,84,70,56,29.88,29.79,2,0,5,0.00
2013-9-21,63,58,53,60,55,-100,96,92,84,29.93,29.83,0,0,3,0.53
2013-9-22,68,58,50,58,52,49,97,84,60,30.02,29.92,2,0,5,0.01
2013-9-23,79,61,48,61,53,46,94,78,47,30.02,29.91,2,0,5,0.00
2013-9-24,73,61,53,58,52,48,92,74,43,30.00,29.94,2,1,6,0.00
2013-9-25,66,57,51,50,47,43,90,70,46,29.95,29.84,2,1,7,0.00
2013-9-26,69,55,43,48,42,38,92,66,32,30.01,29.84,2,0,7,0.00
2013-9-27,74,56,41,48,41,34,89,62,23,30.10,30.01,2,0,4,0.00
2013-9-28,80,59,42,50,41,-100,84,58,28,30.10,29.99,2,0,4,0.00
2013-9-29,80,61,47,58,52,44,91,74,40,30.12,30.02,2,0,3,0.00
2013-9-30,73,62,53,61,56,50,93,80,58,30.09,29.96,2,0,5,0.00
2013-10-1,68,60,53,54,50,48,82,71,55,29.96,29.93,1,0,2,0.00
2013-10-2,74,57,44,54,46,41,91,70,37,30.02,29.92,1,0,3,0.00
2013-10-3,73,56,42,45,39,32,90,60,23,30.06,29.95,3,0,5,0.00
2013-10-4,76,69,53,43,36,32,59,32,22,30.11,30.01,2,0,6,0.00
2013-10-5,84,63,42,47,37,28,75,45,15,30.19,30.09,2,0,5,0.00
2013-10-6,85,63,44,48,39,32,73,45,15,30.14,30.01,1,0,3,0.00
2013-10-7,81,60,44,44,38,34,71,48,22,30.02,29.88,1,0,4,0.00
2013-10-8,71,54,42,54,44,34,89,68,52,29.93,29.75,2,0,5,0.00
2013-10-9,66,53,45,49,45,41,92,76,50,29.79,29.65,1,0,6,0.00
2013-10-10,62,49,40,51,44,37,92,84,65,30.04,29.79,1,0,5,0.00
2013-10-11,66,52,45,52,47,43,92,82,54,30.10,29.98,1,0,3,0.00
2013-10-12,70,52,39,52,42,-100,94,74,46,30.03,29.91,2,0,5,0.00
2013-10-13,70,55,44,52,46,41,94,74,45,30.08,29.95,2,0,4,0.00
2013-10-14,72,55,40,48,42,37,89,67,35,30.12,29.98,1,0,3,0.00
2013-10-15,73,60,41,43,40,36,83,51,28,30.05,29.93,2,0,4,0.00
2013-10-16,78,57,42,48,39,35,79,56,26,30.09,30.01,1,0,4,0.00
2013-10-17,77,56,41,47,38,34,77,55,26,30.09,29.96,1,0,4,0.00
2013-10-18,76,56,41,46,39,33,76,56,26,30.06,29.97,1,0,3,0.00
2013-10-19,78,56,42,49,40,-100,84,62,23,30.07,29.98,0,0,3,0.00
2013-10-20,76,56,42,53,46,38,87,71,40,30.04,29.91,0,0,2,0.00
2013-10-21,73,53,40,52,44,37,90,74,41,30.01,29.90,1,0,4,0.00
2013-10-22,72,53,40,54,46,38,93,78,47,30.02,29.93,1,0,3,0.00
2013-10-23,71,52,42,54,46,40,94,84,50,30.00,29.90,1,0,4,0.00
2013-10-24,60,52,46,51,47,44,93,86,71,30.09,29.98,2,0,5,0.00
2013-10-25,69,56,42,54,48,40,94,78,48,30.17,30.07,0,0,0,0.00
2013-10-26,73,54,41,53,45,-100,93,76,39,30.15,30.01,0,0,0,0.00
2013-10-27,59,50,40,52,45,38,93,84,67,30.05,29.75,2,0,6,0.00
2013-10-28,56,52,49,49,46,-100,95,84,67,29.88,29.71,2,0,6,0.01
2013-10-29,59,52,44,52,47,41,93,85,68,30.07,29.88,2,0,3,0.01
2013-10-30,62,48,37,51,43,35,94,84,61,30.15,30.07,1,0,4,0.00
2013-11-4,62,48,34,38,34,29,91,63,30,30.06,29.93,2,0,5,0.00
2013-11-5,67,56,42,41,37,32,76,52,28,30.25,30.07,1,0,5,0.00
2013-11-6,69,51,39,44,39,34,83,66,34,30.25,30.15,1,0,3,0.00
2013-11-7,68,53,43,47,40,36,82,65,31,30.18,30.07,0,0,2,0.00
2013-11-8,71,53,40,50,44,37,90,74,43,30.10,29.95,1,0,2,0.00
2013-11-9,67,50,41,49,42,-100,92,78,38,30.08,29.99,1,0,4,0.00
2013-11-10,61,51,44,52,46,42,93,84,58,30.14,30.06,1,0,2,0.00
2013-11-11,64,53,43,51,47,41,93,80,51,30.17,30.08,0,0,1,0.00
2013-11-12,67,56,48,51,48,44,86,74,51,30.26,30.16,1,0,3,0.00
2013-11-13,73,55,43,50,45,40,92,73,38,30.25,30.10,1,0,3,0.00
2013-11-14,66,53,42,54,46,40,91,79,60,30.12,29.91,2,0,4,0.00
2013-11-15,60,51,41,47,42,37,89,74,49,29.91,29.73,2,0,3,0.00
2013-11-16,59,46,36,49,40,-100,93,83,64,29.96,29.81,1,0,4,0.00
2013-11-17,57,48,42,50,44,40,94,87,72,30.11,29.96,1,0,2,0.00
2013-11-18,57,46,36,48,42,34,94,86,67,30.17,30.09,0,0,2,0.00
2013-11-19,58,51,44,53,48,42,95,91,81,30.14,29.98,0,0,1,0.02
2013-11-20,58,54,49,57,53,48,97,96,95,29.98,29.85,0,0,2,0.02
2013-11-21,52,49,45,49,47,42,97,93,76,29.96,29.90,2,0,5,0.00
2013-11-22,58,44,38,41,38,33,92,80,41,30.00,29.93,1,0,7,0.00
2013-11-23,57,44,35,49,38,-100,94,87,67,30.14,29.99,1,0,3,0.00
2013-11-24,56,43,35,47,40,33,96,89,68,30.28,30.14,1,0,2,0.00
2013-11-25,58,44,35,48,41,33,96,87,67,30.33,30.24,1,0,3,0.00
2013-11-26,60,48,37,50,43,35,94,85,62,30.27,30.05,0,0,0,0.00
2013-11-27,60,48,38,49,43,36,95,85,61,30.05,29.85,1,0,2,0.02
2013-11-28,60,47,40,49,43,38,94,85,62,30.11,29.88,1,0,2,0.02
2013-12-2,62,48,36,50,44,34,95,85,61,30.26,30.01,2,0,4,0.00
2013-12-3,51,46,35,48,40,32,95,80,56,30.00,29.85,2,0,5,0.00
2013-12-4,46,35,29,34,29,26,92,80,47,30.10,29.94,1,0,2,0.00
2013-12-5,45,33,24,34,27,22,91,80,48,30.21,30.10,1,0,4,0.00
2013-12-6,49,37,27,45,33,24,96,86,65,30.23,29.97,1,0,5,0.59
2013-12-7,47,39,30,46,35,-100,97,90,73,30.26,29.94,2,0,6,0.78
2013-12-8,40,32,27,33,28,25,94,88,73,30.33,30.20,1,0,4,0.01
2013-12-9,39,28,24,29,25,22,93,90,60,30.43,30.32,1,0,3,0.00
2013-12-10,48,32,25,35,28,23,92,85,56,30.43,30.19,1,0,2,0.00
2013-12-11,53,36,29,38,31,27,92,84,51,30.23,30.15,0,0,0,0.00
2013-12-12,54,37,28,38,31,26,92,82,50,30.28,30.17,0,0,0,0.00
2013-12-13,54,38,29,43,34,27,95,86,62,30.34,30.23,0,0,0,0.00
2013-12-14,57,38,30,44,32,-100,94,86,61,30.38,30.28,0,0,0,0.00
2013-12-15,59,40,31,43,36,29,94,85,51,30.37,30.22,0,0,0,0.00
2013-12-16,62,42,34,46,38,32,93,85,49,30.24,30.11,0,0,0,0.00
2013-12-17,63,46,36,48,42,34,92,84,52,30.18,30.04,0,0,0,0.00
2013-12-18,58,47,40,49,44,38,93,87,67,30.03,29.81,1,0,3,0.00
2013-12-19,54,46,36,44,38,33,92,76,50,29.93,29.73,3,0,10,0.00
2013-12-20,56,38,29,33,28,13,91,73,18,30.03,29.93,3,0,5,0.00
2013-12-21,60,42,32,49,36,-100,92,81,63,30.10,29.97,2,0,4,0.00
2013-12-22,59,44,35,46,39,33,95,85,55,30.32,30.10,2,0,3,0.00
2013-12-23,58,43,34,46,39,32,95,86,59,30.39,30.31,0,0,0,0.00
2013-12-24,63,42,34,49,38,32,94,86,53,30.35,30.20,2,0,3,0.00
2013-12-25,62,42,32,45,37,30,93,84,49,30.27,30.18,0,0,0,0.00
2013-12-26,62,40,33,44,36,31,93,85,43,30.26,30.14,0,0,0,0.00
2013-12-27,59,46,32,49,41,29,92,84,62,30.24,30.12,0,0,0,0.00
2013-12-28,61,41,31,40,32,-100,93,76,34,30.13,30.03,2,0,4,0.00
2013-12-29,60,45,35,38,34,31,87,69,38,30.20,30.08,1,0,2,0.00
2013-12-30,58,40,30,40,33,28,91,80,42,30.28,30.20,1,0,3,0.00
2013-12-31,59,41,30,39,33,27,90,76,40,30.28,30.13,0,0,0,0.00
2014-1-1,60,43,31,44,36,29,92,80,46,30.22,30.11,0,0,0,0.00
2014-1-2,63,45,34,46,39,31,91,80,50,30.17,30.04,0,0,0,0.00